Stations météo

Publicité
Ajaccio, France (7761): Température de l'air & dewpoint: 16.02.2017 07:00:00 - 22.02.2017 07:00:00 (CET)Ajaccio, France (7761): Température de l'air 5cm: 16.02.2017 07:00:00 - 22.02.2017 07:00:00 (CET)Ajaccio, France (7761): Température de l'air -20cm & Température de l'air -100cm: 16.02.2017 07:00:00 - 22.02.2017 07:00:00 (CET)Ajaccio, France (7761): Vitesse du vent & gusts: 16.02.2017 07:00:00 - 22.02.2017 07:00:00 (CET)Ajaccio, France (7761): Direction du vent: 16.02.2017 07:00:00 - 22.02.2017 07:00:00 (CET)Ajaccio, France (7761): reduced air pressure: 16.02.2017 07:00:00 - 22.02.2017 07:00:00 (CET)Ajaccio, France (7761): visibility: 16.02.2017 07:00:00 - 22.02.2017 07:00:00 (CET)Ajaccio, France (7761): Ensoleillement: 16.02.2017 07:00:00 - 22.02.2017 07:00:00 (CET)Ajaccio, France (7761): Quantités de précipitations: 16.02.2017 07:00:00 - 22.02.2017 07:00:00 (CET)
Date & Time tt [°C] td [°C] tt 5cm [°C] tt -20cm [°C] tt -100cm [°C] ff [km/h] ff [knt] fx [km/h] fx [knt] dd ppp [hPa] vv [km] sd [min] rr [mm]
22.02.2017 07:00:00 - - - - - - - - - - - - - -
22.02.2017 06:00:00 7,5 4,3 6,0 12,1 13,0 12 6 22 12 NE 1019,7 25 0 0,0
22.02.2017 05:00:00 7,2 4,3 5,8 12,1 12,9 11 6 21 12 NE 1019,9 40 0 0,0
22.02.2017 04:00:00 6,8 4,5 5,9 12,2 13,0 12 7 19 10 NNE 1020,1 38 0 0,0
22.02.2017 03:00:00 6,7 4,5 5,6 12,2 12,9 13 7 19 11 NE 1020,6 33 0 0,0
22.02.2017 02:00:00 7,5 5,0 6,6 12,3 13,0 11 6 15 8 NE 1020,9 27 0 0,0
22.02.2017 01:00:00 8,0 5,1 6,7 12,3 12,9 9 5 13 7 ENE 1021,2 29 0 0,0
22.02.2017 00:00:00 9,2 5,7 7,7 12,3 12,9 9 5 16 8 NE 1020,9 10 0 0,0
21.02.2017 23:00:00 10,7 6,4 9,1 12,3 12,9 7 4 11 6 NE 1020,8 32 0 0,0
21.02.2017 22:00:00 11,4 7,3 10,8 12,2 12,9 7 4 13 7 NE 1021,1 26 0 0,0
21.02.2017 21:00:00 12,0 7,7 11,1 12,2 12,9 5 3 8 4 ENE 1021,0 20 0 0,0
21.02.2017 20:00:00 12,3 7,2 11,2 12,1 12,9 4 2 9 5 ENE 1020,8 33 0 0,0
21.02.2017 19:00:00 12,3 7,0 10,8 12,0 13,0 4 2 11 6 ESE 1021,1 29 0 0,0
21.02.2017 18:00:00 13,0 7,4 11,7 11,8 12,9 5 3 20 11 SSE 1020,6 25 22 0,0
21.02.2017 17:00:00 15,3 7,6 15,5 11,7 12,9 17 9 29 16 SSW 1020,8 20 55 0,0
21.02.2017 16:00:00 14,9 9,0 15,4 11,5 12,9 22 12 29 16 SW 1021,0 41 56 0,0
21.02.2017 15:00:00 15,7 9,4 17,4 11,4 12,9 18 10 26 14 SW 1021,4 25 55 0,0
21.02.2017 14:00:00 15,2 9,3 19,1 11,3 12,9 21 11 28 15 SW 1021,8 30 58 0,0
21.02.2017 13:00:00 15,4 8,8 21,7 11,3 12,9 16 8 21 12 WSW 1022,2 30 60 0,0
21.02.2017 12:00:00 14,4 7,7 21,1 11,3 12,9 8 5 13 7 WSW 1022,8 30 60 0,0
21.02.2017 11:00:00 13,8 6,4 18,6 11,4 12,9 4 2 8 4 W 1023,1 30 60 0,0
21.02.2017 10:00:00 11,8 6,5 12,2 11,5 13,0 5 3 12 6 NE 1023,3 30 60 0,0
21.02.2017 09:00:00 7,6 4,5 4,9 11,6 13,0 8 4 15 8 NNE 1023,4 30 60 0,0
21.02.2017 08:00:00 4,3 2,8 2,9 11,7 13,0 11 6 19 10 NE 1023,2 33 20 0,0
21.02.2017 07:00:00 4,7 2,7 3,0 11,8 12,9 11 6 19 10 NE 1022,9 30 0 0,0
21.02.2017 06:00:00 4,5 3,0 2,6 11,8 12,9 14 8 19 10 NE 1023,1 30 0 0,0
21.02.2017 05:00:00 4,2 2,7 3,1 11,9 12,9 13 7 17 9 NE 1023,2 30 0 0,0
21.02.2017 04:00:00 5,0 3,5 3,8 12,0 12,9 10 6 18 10 NE 1023,2 29 0 0,0
21.02.2017 03:00:00 5,0 3,7 3,6 12,1 13,0 13 7 17 9 NE 1023,4 25 0 0,0
21.02.2017 02:00:00 5,7 4,2 4,4 12,2 12,9 11 6 18 10 NE 1023,8 23 0 0,0
21.02.2017 01:00:00 6,0 4,6 4,0 12,2 12,9 10 6 17 9 NE 1023,6 19 0 0,0
21.02.2017 00:00:00 5,7 4,2 4,7 12,3 12,9 11 6 16 9 NE 1024,0 10 0 0,0
20.02.2017 23:00:00 6,7 5,0 5,3 12,3 12,9 9 5 14 8 NE 1023,7 15 0 0,0
20.02.2017 22:00:00 6,6 4,8 5,4 12,3 12,9 10 5 13 7 NE 1023,4 13 0 0,0
20.02.2017 21:00:00 8,1 5,7 6,8 12,3 12,9 7 4 14 7 NE 1023,0 18 0 0,0
20.02.2017 20:00:00 8,8 6,1 7,2 12,2 12,9 9 5 12 7 ENE 1022,7 20 0 0,0
20.02.2017 19:00:00 11,2 6,7 8,2 12,1 12,9 5 3 19 10 ESE 1022,3 20 0 0,0
20.02.2017 18:00:00 12,9 7,8 11,4 12,0 12,9 15 8 25 14 SW 1021,8 40 23 0,0
20.02.2017 17:00:00 13,7 7,7 13,5 11,8 12,9 20 11 28 15 SW 1021,5 40 11 0,0
20.02.2017 16:00:00 15,0 7,8 16,2 11,7 12,9 20 11 27 15 SW 1021,5 40 54 0,0
20.02.2017 15:00:00 15,0 8,2 17,2 11,5 12,9 16 9 26 14 WSW 1021,9 40 51 0,0
20.02.2017 14:00:00 16,2 9,1 22,2 11,5 12,9 15 8 21 11 SW 1022,2 40 60 0,0
20.02.2017 13:00:00 16,3 9,7 22,3 11,4 12,9 16 9 21 12 SW 1023,1 40 60 0,0
20.02.2017 12:00:00 15,1 7,6 22,0 11,5 12,9 9 5 13 7 WSW 1023,4 40 60 0,0
20.02.2017 11:00:00 15,5 6,8 13,5 11,5 12,9 4 2 10 6 S 1023,4 40 48 0,0
20.02.2017 10:00:00 11,3 5,6 9,2 11,6 12,9 8 4 11 6 NE 1023,4 40 13 0,0
20.02.2017 09:00:00 8,3 4,3 6,5 11,7 12,9 8 4 16 9 NNE 1023,5 40 3 0,0
20.02.2017 08:00:00 6,8 3,4 5,3 11,7 12,9 13 7 22 12 NNE 1023,3 40 1 0,0
20.02.2017 07:00:00 6,4 3,2 4,9 11,8 12,9 13 7 18 10 NNE 1023,1 40 0 0,0
20.02.2017 06:00:00 6,9 3,5 5,6 11,9 12,9 13 7 19 10 NNE 1023,3 60 0 0,0
20.02.2017 05:00:00 7,3 3,7 6,3 12,0 12,9 10 5 19 10 NNE 1023,2 60 0 0,0
20.02.2017 04:00:00 7,0 3,8 5,5 12,1 12,9 11 6 19 10 NNE 1023,5 60 0 0,0
20.02.2017 03:00:00 6,4 3,7 4,8 12,2 12,9 13 7 21 11 NNE 1024,1 60 0 0,0
20.02.2017 02:00:00 5,8 3,6 4,3 12,3 12,9 12 6 21 11 NNE 1024,6 52 0 0,0
20.02.2017 01:00:00 5,9 3,7 3,7 12,4 12,9 11 6 18 10 NNE 1024,7 48 0 0,0
20.02.2017 00:00:00 5,1 3,3 4,1 12,4 12,9 10 5 14 8 NE 1024,9 30 0 0,0
19.02.2017 23:00:00 5,6 4,1 4,2 12,5 12,9 12 6 15 8 NE 1024,7 28 0 0,0
19.02.2017 22:00:00 6,1 4,4 4,8 12,5 12,9 10 6 16 9 NE 1024,6 13 0 0,0
19.02.2017 21:00:00 6,5 4,5 5,4 12,5 12,8 11 6 16 8 NE 1025,0 12 0 0,0
19.02.2017 20:00:00 8,3 5,6 6,5 12,5 12,9 10 6 16 9 NE 1024,5 31 0 0,0
19.02.2017 19:00:00 9,6 5,9 6,2 12,4 12,9 5 3 8 4 ESE 1024,0 42 0 0,0
19.02.2017 18:00:00 12,9 6,5 9,4 12,2 12,8 4 2 11 6 S 1023,5 60 55 0,0
19.02.2017 17:00:00 14,3 7,1 13,8 12,1 12,8 9 5 16 9 SSW 1023,7 40 60 0,0
19.02.2017 16:00:00 14,9 7,4 15,5 12,0 12,8 12 7 18 10 SW 1023,8 40 60 0,0
19.02.2017 15:00:00 15,5 8,2 16,5 11,9 12,8 14 8 22 12 SSW 1024,0 40 60 0,0
19.02.2017 14:00:00 15,1 8,1 21,2 11,8 12,8 16 9 22 12 SW 1024,3 40 60 0,0
19.02.2017 13:00:00 14,7 8,0 21,3 11,8 12,8 15 8 21 11 WSW 1024,9 40 60 0,0
19.02.2017 12:00:00 13,9 6,0 20,7 11,9 12,8 11 6 16 9 SW 1025,5 40 60 0,0
19.02.2017 11:00:00 13,6 4,7 18,1 11,9 12,8 5 3 9 5 WSW 1025,7 40 60 0,0
19.02.2017 10:00:00 11,1 4,3 11,4 12,1 12,8 5 3 15 8 NE 1025,6 40 60 0,0
19.02.2017 09:00:00 7,1 3,2 4,8 12,2 12,8 9 5 21 12 NE 1025,5 60 60 0,0
19.02.2017 08:00:00 3,9 1,6 2,2 12,3 12,8 13 7 20 11 NNE 1025,0 40 17 0,0
19.02.2017 07:00:00 3,7 1,9 2,3 12,4 12,8 13 7 21 11 NNE 1024,5 40 0 0,0
19.02.2017 06:00:00 3,9 2,3 2,8 12,5 12,8 12 7 20 11 NE 1024,2 30 0 0,0
19.02.2017 05:00:00 4,7 2,9 3,6 12,6 12,8 14 8 21 11 NE 1023,8 60 0 0,0
19.02.2017 04:00:00 5,6 3,4 4,3 12,6 12,8 7 4 18 10 NE 1023,8 60 0 0,0
19.02.2017 03:00:00 6,2 3,7 5,0 12,7 12,8 10 5 16 9 NNE 1023,8 60 0 0,0
19.02.2017 02:00:00 7,1 4,4 5,6 12,7 12,8 10 6 21 11 NE 1023,7 57 0 0,0
19.02.2017 01:00:00 7,6 5,2 6,4 12,7 12,8 11 6 19 11 NNE 1023,5 51 0 0,0
19.02.2017 00:00:00 8,9 6,5 7,6 12,7 12,8 9 5 16 9 NE 1023,4 39 0 0,0
18.02.2017 23:00:00 10,3 8,6 9,4 12,8 12,8 10 6 14 7 NNE 1023,2 25 0 0,0
18.02.2017 22:00:00 11,0 9,7 10,0 12,7 12,8 8 5 13 7 ENE 1023,0 20 0 0,2
18.02.2017 21:00:00 10,9 9,7 9,6 12,7 12,8 8 4 16 9 NE 1022,9 20 0 0,0
18.02.2017 20:00:00 10,8 8,9 9,7 12,6 12,8 11 6 19 11 E 1022,5 21 0 0,2
18.02.2017 19:00:00 12,6 10,3 11,0 12,5 12,8 11 6 18 10 E 1022,2 9 0 0,2
18.02.2017 18:00:00 13,3 9,9 12,7 12,4 12,8 13 7 21 11 W 1021,6 30 0 0,0
18.02.2017 17:00:00 13,7 10,1 13,6 12,3 12,8 17 9 24 13 WSW 1021,2 42 46 0,0
18.02.2017 16:00:00 14,8 10,2 15,3 12,2 12,7 16 9 30 16 WSW 1021,1 30 15 0,0
18.02.2017 15:00:00 14,5 10,3 16,6 12,1 12,7 21 12 27 15 SW 1021,0 30 42 0,0
18.02.2017 14:00:00 15,5 10,9 21,4 11,9 12,7 18 10 29 16 SW 1021,4 30 60 0,0
18.02.2017 13:00:00 15,5 10,9 16,8 11,9 12,7 21 11 29 16 SW 1021,9 30 49 0,0
18.02.2017 12:00:00 15,5 10,0 22,0 11,9 12,7 13 7 18 10 WSW 1022,1 30 60 0,0
18.02.2017 11:00:00 15,8 9,5 16,6 11,9 12,7 4 2 13 7 NNW 1022,2 28 60 0,0
18.02.2017 10:00:00 13,3 9,5 11,7 11,9 12,7 5 3 15 8 NNE 1022,1 15 42 0,0
18.02.2017 09:00:00 10,7 9,6 8,9 12,0 12,8 9 5 13 7 NE 1022,1 15 7 0,0
18.02.2017 08:00:00 9,4 8,5 8,2 12,0 12,7 6 3 10 5 NNE 1021,7 9 0 0,0
18.02.2017 07:00:00 9,7 8,5 8,5 12,0 12,7 9 5 13 7 NNE 1021,5 13 0 0,0
18.02.2017 06:00:00 10,1 8,9 9,0 12,0 12,7 5 3 11 6 NE 1021,4 13 0 0,0
18.02.2017 05:00:00 10,3 9,1 9,3 12,1 12,7 8 4 14 8 NE 1021,4 10 0 0,0
18.02.2017 04:00:00 10,4 8,8 9,3 12,1 12,7 8 4 11 6 ENE 1021,6 4,7 0 0,8
18.02.2017 03:00:00 10,5 8,6 9,5 12,1 12,7 8 4 10 6 NE 1022,3 13 0 0,0
18.02.2017 02:00:00 10,6 8,5 9,6 12,2 12,7 6 4 13 7 NE 1023,0 12 0 0,0
18.02.2017 01:00:00 10,6 8,5 9,5 12,1 12,7 4 2 8 4 NNE 1023,4 9 0 0,0
18.02.2017 00:00:00 11,0 8,7 10,1 12,2 12,7 6 3 9 5 NE 1023,7 11 0 0,0
17.02.2017 23:00:00 10,9 8,8 10,1 12,1 12,7 5 3 9 5 NE 1024,1 8 0 0,0
17.02.2017 22:00:00 11,4 8,8 10,6 12,1 12,7 4 2 6 4 NNE 1024,6 10 0 0,0
17.02.2017 21:00:00 11,4 8,8 10,7 12,0 12,7 6 3 8 5 NE 1024,7 8 0 0,0
17.02.2017 20:00:00 11,4 8,8 10,7 12,0 12,7 4 2 7 4 NE 1024,6 12 0 0,0
17.02.2017 19:00:00 12,0 8,8 10,0 11,8 12,7 3 2 8 4 ENE 1024,7 14 0 0,0
17.02.2017 18:00:00 13,1 9,3 11,8 11,7 12,7 8 4 16 9 SW 1024,9 30 2 0,0
17.02.2017 17:00:00 14,3 9,3 14,3 11,6 12,7 11 6 16 9 SW 1025,0 30 20 0,0
17.02.2017 16:00:00 14,3 9,5 15,4 11,5 12,7 11 6 17 9 SW 1025,3 30 2 0,0
17.02.2017 15:00:00 15,2 10,0 16,6 11,3 12,7 13 7 22 12 WSW 1026,1 30 35 0,0
17.02.2017 14:00:00 15,7 8,9 21,7 11,3 12,7 18 10 24 13 WSW 1026,5 35 60 0,0
17.02.2017 13:00:00 15,7 10,2 21,9 11,2 12,7 15 8 22 12 SW 1027,2 30 60 0,0
17.02.2017 12:00:00 15,0 8,2 20,6 11,2 12,7 13 7 18 10 SW 1028,0 30 60 0,0
17.02.2017 11:00:00 13,5 6,8 20,0 11,3 12,7 9 5 12 6 SW 1028,5 30 60 0,0
17.02.2017 10:00:00 12,6 7,3 12,8 11,4 12,7 4 2 12 6 N 1028,7 30 60 0,0
17.02.2017 09:00:00 8,6 5,9 4,7 11,5 12,7 8 4 15 8 NE 1028,9 30 60 0,0
17.02.2017 08:00:00 5,0 3,8 4,1 11,6 12,7 11 6 15 8 NE 1028,9 30 0 0,0
17.02.2017 07:00:00 5,3 4,3 3,9 11,6 12,7 11 6 14 8 NE 1029,0 30 0 0,0
17.02.2017 06:00:00 5,4 3,4 4,3 11,7 12,7 10 5 14 8 NE 1029,2 20 0 0,0
17.02.2017 05:00:00 5,7 4,2 4,3 11,8 12,7 9 5 15 8 NE 1029,3 23 0 0,0
17.02.2017 04:00:00 6,1 5,1 4,3 11,9 12,7 10 6 16 9 NE 1029,7 25 0 0,0
17.02.2017 03:00:00 5,6 4,2 4,4 12,0 12,7 10 5 16 9 NE 1030,1 20 0 0,0
17.02.2017 02:00:00 5,9 4,7 4,8 12,1 12,7 10 5 15 8 NE 1030,8 15 0 0,0
17.02.2017 01:00:00 5,8 4,8 4,6 12,1 12,7 10 5 16 9 ENE 1031,2 11 0 0,0
17.02.2017 00:00:00 5,7 4,7 4,7 12,2 12,6 11 6 14 8 NE 1031,5 10 0 0,0
16.02.2017 23:00:00 7,2 6,1 5,4 12,2 12,7 9 5 11 6 NE 1031,7 7 0 0,0
16.02.2017 22:00:00 7,9 6,5 6,7 12,2 12,6 5 3 9 5 NE 1031,8 3,7 0 0,0
16.02.2017 21:00:00 9,0 7,4 7,4 12,2 12,7 7 4 12 6 ENE 1031,7 10 0 0,0
16.02.2017 20:00:00 9,9 8,0 8,6 12,1 12,6 9 5 13 7 ENE 1031,5 7 0 0,0
16.02.2017 19:00:00 11,4 9,5 8,3 12,0 12,7 6 4 9 5 ENE 1031,6 11 0 0,0
16.02.2017 18:00:00 13,0 10,5 11,1 11,8 12,6 4 2 17 9 SSE 1031,5 12 32 0,0
16.02.2017 17:00:00 14,5 10,9 14,1 11,7 12,6 14 8 20 11 S 1031,2 19 60 0,0
16.02.2017 16:00:00 15,4 11,0 15,6 11,5 12,6 13 7 23 12 S 1031,3 20 60 0,0
16.02.2017 15:00:00 15,7 11,3 16,5 11,4 12,6 16 9 24 13 S 1031,7 30 60 0,0
16.02.2017 14:00:00 15,2 10,6 18,9 11,4 12,6 16 9 22 12 SSW 1032,2 30 60 0,0
16.02.2017 13:00:00 15,6 11,2 20,2 11,4 12,6 14 8 20 11 SSW 1032,7 30 60 0,0
16.02.2017 12:00:00 14,8 9,6 20,3 11,4 12,6 10 5 13 7 SW 1033,3 30 60 0,0
16.02.2017 11:00:00 13,7 8,1 20,3 11,4 12,6 6 4 9 5 SW 1033,4 36 60 0,0
16.02.2017 10:00:00 12,7 7,8 13,2 11,5 12,6 3 1 11 6 N 1033,3 20 60 0,0
16.02.2017 09:00:00 9,0 6,6 6,3 11,6 12,6 8 4 15 8 NE 1033,5 19 60 0,0
16.02.2017 08:00:00 6,0 5,1 4,2 11,7 12,6 10 5 18 10 NE 1033,4 20 12 0,0
16.02.2017 07:00:00 4,9 4,0 3,9 11,8 12,6 12 6 16 9 NE 1033,3 30 0 0,0

tt = Température de l'air
td = dewpoint
tt 5cm = Température de l'air 5cm
tt -20cm = Température de l'air -20cm
tt -100cm = Température de l'air -100cm
ff = Vitesse du vent
fx = gusts
dd = Direction du vent
ppp = reduced air pressure
vv = visibility
sd = Ensoleillement
rr = Quantités de précipitations

stations d'obs. à proximité